Hourly Data Report for October 26, 2017

All times are specified in Local Standard Time (LST). Add 1 hour to adjust for Daylight Saving Time where and when it is observed.

POWELL RIVER
BRITISH COLUMBIA

49°50'04.400" N
124°29'48.500" W
125.00 m
1046392
71720
VOP

Download Data

Hourly Data (October 2017)
Hourly Data Report for October 26, 2017
Temp Definition
°C
Dew Point Temp Definition
°C
Rel Hum Definition
%
Wind Dir Definition
10's deg

Wind Spd Definition
km/h
Visibility Definition
km
Stn Press Definition
kPa
Hmdx Definition


Wind Chill Definition


Weather Definition


TIME
00:00 5.4 5.0 97 LegendMM LegendMM   101.04     LegendNANA
01:00 5.3 4.9 97 LegendMM LegendMM   101.04     LegendNANA
02:00 5.3 4.9 98 LegendMM LegendMM   101.05     LegendNANA
03:00 5.9 5.5 97 LegendMM LegendMM   101.01     LegendNANA
04:00 6.9 6.6 98 LegendMM LegendMM   101.04     LegendNANA
05:00 7.3 7.0 98 LegendMM LegendMM   101.09     LegendNANA
06:00 7.4 7.1 98 LegendMM LegendMM   101.07     LegendNANA
07:00 7.5 7.2 98 LegendMM LegendMM   101.12     LegendNANA
08:00 8.5 8.2 98 LegendMM LegendMM   101.21     LegendNANA
09:00 9.4 8.9 97 LegendMM LegendMM   101.21     LegendNANA
10:00 10.7 9.8 94 LegendMM LegendMM   101.19     LegendNANA
11:00 10.8 9.2 90 LegendMM LegendMM   101.22     LegendNANA
12:00 11.6 8.9 84 LegendMM LegendMM   101.20     LegendNANA
13:00 11.8 8.3 79 LegendMM LegendMM   101.13     LegendNANA
14:00 11.7 8.0 78 LegendMM LegendMM   101.11     LegendNANA
15:00 11.7 7.6 76 LegendMM LegendMM   101.09     LegendNANA
16:00 11.2 7.6 79 LegendMM LegendMM   101.07     LegendNANA
17:00 9.7 7.4 85 LegendMM LegendMM   101.05     LegendNANA
18:00 8.0 6.7 91 LegendMM LegendMM   101.06     LegendNANA
19:00 7.0 6.1 94 LegendMM LegendMM   101.07     LegendNANA
20:00 6.4 5.7 96 LegendMM LegendMM   101.07     LegendNANA
21:00 6.1 5.6 96 LegendMM LegendMM   101.06     LegendNANA
22:00 5.7 5.1 96 LegendMM LegendMM   101.06     LegendNANA
23:00 5.3 4.8 97 LegendMM LegendMM   101.06     LegendNANA

Notes on Data Quality.

Legend

  • E = Estimated
  • M = Missing
  • NA = Not Available
  • ‡ = Partner data that is not subject to review by the National Climate Archives
Date modified: